Weather Roundup
Issued by NWS Chicago, IL

Home | Current Version | Previous Version | Text Only | Print | Product List | Glossary Off
Versions: 1 2 3 4 5 6 7 8 9 10 11 12 13 14 15 16 17 18 19 20 21 22 23 24 25 26 27 28 29 30 31 32 33 34 35 36 37 38 39 40 41 42 43 44 45 46 47 48 49 50

000
NZUS59 KLOT 290200
HRRLOT

CHICAGO AREA WEATHER ROUNDUP
NATIONAL WEATHER SERVICE CHICAGO/ROMEOVILLE IL
900 PM CDT TUE JUL 28 2015

NOTE: "FAIR" INDICATES FEW OR NO CLOUDS BELOW 12,000 FEET WITH NO
SIGNIFICANT WEATHER AND/OR OBSTRUCTIONS TO VISIBILITY.

* THESE STATIONS ARE NOT UNDER NWS QUALITY CONTROL. THEY ALSO MAY NOT
  REPORT WEATHER SUCH AS PRECIPITATION OR FOG.

ILZ005-006-012>014-019>023-290300-
NORTHEAST ILLINOIS

CITY           SKY/WX    TMP DP  RH WIND       PRES   REMARKS
OHARE          MOCLDY    83  72  69 SW6       29.94R HX  88
MIDWAY         MOCLDY    86  70  58 SW6       29.94R HX  90
AURORA         PTCLDY    78  73  84 CALM      29.95R HX  81
WAUKEGAN       NOT AVBL
DUPAGE AIRPORT CLEAR     80  75  84 SW5       29.95R HX  85
WHEELING       CLEAR     84  71  65 W3        29.95R HX  89
NORTHERLY IS     N/A     86  68  54 SW8         N/A  HX  89
$$

WIZ051-052-058>065-066-070>072-290300-
SOUTHEAST WISCONSIN

CITY           SKY/WX    TMP DP  RH WIND       PRES   REMARKS
MILWAUKEE      MOCLDY    78  67  68 SE7       29.93R HX  80
KENOSHA*       PTCLDY    80  69  69 S3        29.94R HX  83
RACINE*        CLEAR     79  67  66 S3        29.95R HX  81
WAUKESHA       PTCLDY    79  70  73 S6        29.95R HX  81
$$

INZ001>003-010>013-019-020-290300-
NORTHWEST INDIANA

CITY           SKY/WX    TMP DP  RH WIND       PRES   REMARKS
GARY*          PTCLDY    77  75  94 CALM      29.94R
MICHIGAN CITY* NOT AVBL
RENSSELAER*    NOT AVBL
$$

LMZ740>746-290300-
SOUTHERN LAKE MICHIGAN

STATION/POSITION TIME  SKY/WX   TEMP WIND        PRES    VSBY
                                AIR  DIR/SP/G
                 (UTC)          (F)  (DEG/KT/KT) (MB)    (MI)
HARRISON CRIB    0100            77  160/  2/  3   N/A
BURNHAM HARBOR   0100            81  130/  2/  3   N/A
CALUMET HARBOR   0100            86  210/  5/  9   N/A
BURNS HARBOR     0100            85  190/  5/  8 1013.5S
MICHIGAN CITY    0100            85  110/  5/  7   N/A
$$

ABBREVIATIONS USED IN REMARKS
   TC - TEMPERATURE IN CELSIUS
  WCI - WIND CHILL INDEX
   HX - HEAT INDEX
  VSB - VISIBILITY
$$



USA.gov is the U.S. government's official web portal to all federal, state and local government web resources and services.